Tracking 29892 objects as of 21-Nov-2024
HD Live streaming from Space Station
objects crossing your sky now

NUSAT-36 (ANNIE CANNON)

Track NUSAT-36 (ANNIE CANNON) now!
10-day predictions


NORAD ID: 56190
Int'l Code: 2023-054N
Perigee: 412.6 km
Apogee: 417.4 km
Inclination: 97.3 °
Period: 92.7 minutes
Semi major axis: 6786 km
RCS: Unknown
Launch date: April 15, 2023
Source: Argentina (ARGN)
Launch site: AIR FORCE WESTERN TEST RANGE (AFWTR)
Your satellite tracking list
Your tracking list is empty




NASA's NSSDC Master Catalog

Two Line Element Set (TLE):
1 56190U 23054N   24326.11689095  .00069973  00000-0  11145-2 0  9999
2 56190  97.3365 224.1084 0003542   1.9966 358.1301 15.53022871 90286
Source of the keplerian elements: AFSPC